ARIANE 42P DEB, 44509

Orbit data source: Space-Track

ARIANE 42P DEB, 44509 is space debris in LEO originally from a launch on Mon, 10 Aug 1992 UTC launched from the French Guiana (FRGUI). Debris objects in space refer to the collection of defunct objects orbiting the Earth. Examples of debris include non-operational satellites, rocket bodies, and fragments generated from explosions, collisions, or faulty payload assembly.

Loading next visibility...
Identifier
44509, 1992-052G
Orbit
LEO
Last TLE update
8 hours ago
Origin
Manufacturer
ArianeGroup
Mission
Spacecraft
Bus & Motor
Unknown
Mass
Unknown
Launch date (UTC)
1992-08-10 (33 years ago)
Launch vehicle
Unknown
Launch site
French Guiana (FRGUI)
Object type
Payload
Rocket body
Debris
Shape & HBR
Unknown
Radar Cross Section
Small (<0.1 m²)

Expand to show TLE details & history

TLE from 8 hours ago
0 ARIANE 42P DEB
1 44509U 92052G   25183.57491124  .00000642  00000-0  28905-2 0  9990
2 44509  66.0825 296.2914 0057869  78.6409 282.1102 12.84311863275033
Epoch: 2025-07-02T13:47Z
TLE epoch observation values (Epoch: 2025-07-02T13:47:52.331Z)
Latitude
-0.00002°
Longitude
168.46929°
Altitude
1,316.994 km
Speed
7.203 km/s
True Right ascension
19h 45m 09s
True Declination
0° 00' 00"
Sunlit
Object was in full shadow at epoch
Visualization orbit readout
Latitude
21.18992°
Longitude
177.65939°
Altitude
1,300.218 km
Speed
7.22 km/s
Apparent Right ascension
20h 40m 32s
Apparent Declination
-6° 13' 42"
Sunlit
Object is in full shadow
Visualization observer readout
Local Sidereal Time
09:07:46
Azimuth
12.094° NNE
Elevation
-55.76°
Doppler factor
1
Orbital elements
Apogee altitude
1,367.302 km
Perigee altitude
1,278.174 km
Semi-major axis
7,700.875 km
Eccentricity
0.00579
Inclination
66.0825°
RAAN
296.2914°
Arg. of periapsis
78.6409°
True anomaly
Unknown
Mean anomaly
282.1102°
Eccentric anomaly
Unknown
Mean motion
3.21169 °/min
Orbital period
112.09 mins
BSTAR
0.0028905
Loading maneuver chart data...
Loading SW <> Apogee altitude chart data...
Loading historical data...
Loading historical data...
Loading historical data...
Loading historical data...
Loading historical data...
Loading historical data...
Loading historical data...

ARIANE 42P DEB Visibility forecast

Observer location: undefined°, undefined°

Span
Click to sort rows by Start time (UTC) header in descending order
Start Az.
Max El. time (UTC)
Max El. Az.
Max El.
End time (UTC)
End Az.
15 mins2025-07-03 08:34:35.287Z187.702° SSW2025-07-03 08:41:35.287Z124.565° SE39.434°2025-07-03 08:49:35.287Z38.079° NE
12 mins2025-07-03 10:32:35.287Z257.078° W2025-07-03 10:37:35.287Z308.62° NW29.993°2025-07-03 10:44:35.287Z16.09° NNE
11 mins2025-07-03 16:30:35.287Z354.365° N2025-07-03 16:35:35.287Z41.981° NE24.26°2025-07-03 16:41:35.287Z94.607° ESE
14 mins2025-07-03 18:25:35.287Z326.707° NNW2025-07-03 18:31:35.287Z275.465° WNW44.262°2025-07-03 18:39:35.287Z158.24° S
5 mins2025-07-03 20:24:35.287Z273.994° WNW2025-07-03 20:26:35.287Z257.795° W13.484°2025-07-03 20:29:35.287Z234.84° WSW
|